Gallup, NM

11:30 PM MDT on July 20, 2017 (GMT -0600)
Gallup Municipal

Weather History for KGUP - January, 2013

Change the Weather History Date:

Tuesday, January 22, 2013

  Actual Average Record
Temperature  
Mean Temperature 35 °F -  
Max Temperature 60 °F 45 °F 60 °F (2013)
Min Temperature 10 °F 14 °F -9 °F (1987)
Degree Days  
Heating Degree Days 30    
Moisture  
Dew Point 13 °F    
Average Humidity 53    
Maximum Humidity 74    
Minimum Humidity 13    
Precipitation  
Precipitation 0.00 in - - ()
Sea Level Pressure  
Sea Level Pressure 30.43 in    
Wind  
Wind Speed 1 mph (South)    
Max Wind Speed 9 mph    
Max Gust Speed -    
Visibility 10 miles    
Events      
Averages and records for this station are not official NWS values.
T = Trace of Precipitation, MM = Missing Value Source: NWS Daily Summary

Daily Weather History Graph

Daily Weather History Graph

Search for Another Location

Airport or City:

Trip Planner

Search our weather history database for the weather conditions in past years. The results will help you decide how hot, cold, wet, or windy it might be!

Date:

Astronomy

Jan. 22, 2013 Rise Set
Actual Time 7:21 AM MST 5:33 PM MST
Civil Twilight 6:53 AM MST 6:00 PM MST
Nautical Twilight 6:22 AM MST 6:31 PM MST
Astronomical Twilight 5:52 AM MST 7:01 PM MST
Moon 1:59 PM MST (1/22) 3:43 AM MST (1/22)
Length of Visible Light 11h 06m
Length of Day
10h 12m
Waxing Gibbous, 83% of the Moon is Illuminated
Jan 22
Waxing Gibbous
Jan 26
Full
Feb 3
Last Quarter
Feb 10
New
Feb 17
First Quarter

Hourly Weather History & Observations

Time (MST) Temp. Windchill Dew Point Humidity Pressure Visibility Wind Dir Wind Speed Gust Speed Precip Events Conditions
12:53 AM 18.0 °F - 10.0 °F 71% 30.38 in 10.0 mi Calm Calm - N/A   Clear
1:53 AM 17.1 °F - 10.0 °F 74% 30.38 in 10.0 mi Calm Calm - N/A   Clear
2:53 AM 16.0 °F - 9.0 °F 74% 30.36 in 10.0 mi Calm Calm - N/A   Clear
3:53 AM 15.1 °F - 8.1 °F 74% 30.37 in 10.0 mi Calm Calm - N/A   Clear
4:53 AM 16.0 °F - 8.1 °F 71% 30.39 in 10.0 mi Calm Calm - N/A   Clear
5:53 AM 12.0 °F - 5.0 °F 73% 30.48 in 10.0 mi Calm Calm - N/A   Clear
6:53 AM 10.9 °F - 3.9 °F 73% 30.57 in 10.0 mi Calm Calm - N/A   Clear
7:53 AM 14.0 °F - 5.0 °F 67% 30.59 in 10.0 mi Calm Calm - N/A   Clear
8:53 AM 25.0 °F - 15.1 °F 66% 30.53 in 10.0 mi Calm Calm - N/A   Clear
9:53 AM 33.1 °F - 17.1 °F 52% 30.48 in 10.0 mi Calm Calm - N/A   Clear
10:53 AM 39.0 °F - 16.0 °F 39% 30.47 in 10.0 mi Calm Calm - N/A   Clear
11:53 AM 45.0 °F - 16.0 °F 31% 30.41 in 10.0 mi Calm Calm - N/A   Clear
12:53 PM 50.0 °F - 15.1 °F 25% 30.36 in 10.0 mi Calm Calm - N/A   Clear
1:53 PM 55.9 °F - 10.9 °F 17% 30.29 in 10.0 mi Calm Calm - N/A   Clear
2:53 PM 57.9 °F - 7.0 °F 13% 30.28 in 10.0 mi NW 3.5 mph - N/A   Clear
3:53 PM 60.1 °F - 15.1 °F 17% 30.27 in 10.0 mi North 5.8 mph - N/A   Clear
4:53 PM 52.0 °F - 17.1 °F 25% 30.33 in 10.0 mi North 9.2 mph - N/A   Clear
5:53 PM 39.9 °F - 17.1 °F 40% 30.47 in 10.0 mi Calm Calm - N/A   Clear
6:53 PM 35.1 °F - 17.1 °F 48% 30.53 in 10.0 mi Calm Calm - N/A   Clear
7:53 PM 30.9 °F - 18.0 °F 59% 30.54 in 10.0 mi Calm Calm - N/A   Clear
8:53 PM 26.1 °F - 17.1 °F 69% 30.51 in 10.0 mi Calm Calm - N/A   Clear
9:53 PM 25.0 °F - 16.0 °F 69% 30.46 in 10.0 mi Calm Calm - N/A   Clear
10:53 PM 23.0 °F 17.0 °F 15.1 °F 72% 30.45 in 10.0 mi NE 4.6 mph - N/A   Clear